TimeEDT,TemperatureF,Dew PointF,Humidity,Sea Level PressureIn,VisibilityMPH,Wind Direction,Wind SpeedMPH,Gust SpeedMPH,PrecipitationIn,Events,Conditions,WindDirDegrees,DateUTC
12:00 AM,78.8,71.6,78,29.98,6.2,ESE,3.5,-,N/A,,Scattered Clouds,120,2014-04-29 04:00:00
1:00 AM,78.8,71.6,78,29.98,6.2,East,3.5,-,N/A,,Mostly Cloudy,100,2014-04-29 05:00:00
2:00 AM,79,74,79,29.96,9,ESE,4.6,,,,Scattered Clouds,120,2014-04-29 06:00:00
2:00 AM,78.8,73.4,83,29.96,6.2,ESE,4.6,-,N/A,,Mostly Cloudy,120,2014-04-29 06:00:00
3:00 AM,78.8,71.6,78,29.95,6.2,SE,6.9,-,N/A,,Mostly Cloudy,130,2014-04-29 07:00:00
4:00 AM,78.8,71.6,78,29.96,6.2,SE,5.8,-,N/A,,Mostly Cloudy,130,2014-04-29 08:00:00
5:00 AM,79,74,79,29.95,9,ESE,3.5,,,,Scattered Clouds,120,2014-04-29 09:00:00
5:00 AM,78.8,73.4,83,29.94,6.2,ESE,3.5,-,N/A,,Mostly Cloudy,120,2014-04-29 09:00:00
6:00 AM,77.0,71.6,83,29.94,6.2,ESE,5.8,-,N/A,,Mostly Cloudy,120,2014-04-29 10:00:00
7:00 AM,78.8,71.6,78,29.96,6.2,ESE,4.6,-,N/A,,Scattered Clouds,120,2014-04-29 11:00:00
8:00 AM,81,75,77,29.99,9,ESE,6.9,,,,Scattered Clouds,120,2014-04-29 12:00:00
8:00 AM,80.6,75.2,84,29.98,6.2,ESE,6.9,-,N/A,,Scattered Clouds,120,2014-04-29 12:00:00
9:00 AM,82.4,71.6,70,30.00,-9999.0,ESE,11.5,-,N/A,,Scattered Clouds,120,2014-04-29 13:00:00
10:00 AM,82.4,71.6,70,30.01,6.2,SE,11.5,-,N/A,,Scattered Clouds,130,2014-04-29 14:00:00
11:00 AM,85,75,64,30.03,9,SE,1.2,,,,Partly Cloudy,140,2014-04-29 15:00:00
11:00 AM,84.2,75.2,74,30.03,6.2,SE,11.5,-,N/A,,Scattered Clouds,140,2014-04-29 15:00:00
12:00 PM,86.0,71.6,62,30.03,6.2,ESE,11.5,-,N/A,,Scattered Clouds,120,2014-04-29 16:00:00
1:00 PM,84.2,71.6,66,30.01,6.2,SSE,11.5,-,N/A,,Scattered Clouds,150,2014-04-29 17:00:00
2:00 PM,86,76,65,30.01,9,ESE,11.5,,,,Mostly Cloudy,120,2014-04-29 18:00:00
2:00 PM,86.0,75.2,70,30.01,6.2,ESE,11.5,-,N/A,,Mostly Cloudy,120,2014-04-29 18:00:00
3:00 PM,84.2,71.6,66,29.99,6.2,South,11.5,-,N/A,,Scattered Clouds,180,2014-04-29 19:00:00
4:00 PM,84.2,71.6,66,29.98,6.2,SSE,11.5,-,N/A,,Scattered Clouds,150,2014-04-29 20:00:00
5:00 PM,84,74,64,29.97,9,SE,6.9,,,,Partly Cloudy,130,2014-04-29 21:00:00
6:00 PM,82.4,69.8,66,29.96,6.2,SSE,9.2,-,N/A,,Partly Cloudy,160,2014-04-29 22:00:00
7:00 PM,82.4,69.8,66,29.96,6.2,SSE,4.6,-,N/A,,Partly Cloudy,160,2014-04-29 23:00:00
8:00 PM,82.4,73.4,74,29.96,6.2,SE,9.2,-,N/A,,Partly Cloudy,130,2014-04-30 00:00:00
9:00 PM,80.6,69.8,70,30.02,6.2,ESE,3.5,-,N/A,,Partly Cloudy,110,2014-04-30 01:00:00
10:00 PM,78.8,69.8,74,30.05,6.2,SE,4.6,-,N/A,,Partly Cloudy,140,2014-04-30 02:00:00
11:00 PM,80,73,73,30.06,9,SE,6.9,,,,Scattered Clouds,130,2014-04-30 03:00:00
11:00 PM,80.6,73.4,79,30.06,6.2,SE,6.9,-,N/A,,Partly Cloudy,130,2014-04-30 03:00:00